Location: Moscow
(55.7500°N, 37.5830°E)
Time: 06:53:51
(UTC+03:00)

Transit 2A - Pass Details

Date: 09 December 2021
Orbit: 591 x 967 km, 66.7° (Epoch: 17 January)

Event Time Altitude Azimuth Distance (km) Brightness Sun altitude
Exits shadow 07:32:35 10° 314° (NW) 2,714 8.2 -9.4°
Maximum altitude 07:38:58 71° 233° (SW) 1,014 6.6 -8.6°
Drops below altitude 10° 07:45:09 10° 150° (SSE) 2,630 9.8 -7.9°
Sets 07:47:37 0° 149° (SSE) 3,532 10.7 -7.6°
